Location: Courçay
(47.2523°N, 0.8761°E)
Time: 21:09:51
(UTC+00:00)

Helios 1A Rocket - Pass Details

Date: 18 November 2025
Orbit: 440 x 452 km, 98.3° (Epoch: 05 December)

Event Time Altitude Azimuth Distance (km) Brightness Sun altitude
Exits shadow 18:48:19 34° 236° (SW) 764 3.9 -25.3°
Drops below altitude 10° 18:50:35 - 212° (SSW) 1,614 5.6 -25.7°
Sets 18:52:32 0° 208° (SSW) 2,444 6.5 -26.0°
